Location: Newark
(41.6500°N, 71.4833°W)
Time: 11:54:47
(UTC+00:00)

X-37B - Visible Passes

Search period start: 20 September 2020 00:00
Search period end: 30 September 2020 00:00
Orbit: 386 x 387 km, 45.0° (Epoch: 18 September)

Date Brightness Start Highest point End Pass type
(mag) Time Alt. Az. Time Alt. Az. Time Alt. Az.
20 Sep 4.2 07:42:23 10° ENE 07:42:23 10° ENE 07:42:26 10° ENE visible
20 Sep 1.1 09:14:40 25° WNW 09:16:16 54° NNE 09:19:24 10° E visible
21 Sep 2.7 08:18:53 28° ENE 08:18:53 28° ENE 08:20:41 10° E visible
21 Sep 0.6 09:51:10 10° WNW 09:54:21 70° SSW 09:57:31 10° ESE visible
22 Sep 0.6 08:55:29 67° NNW 08:55:46 76° NNE 08:58:58 10° ESE visible
23 Sep 3.9 07:59:54 13° E 07:59:54 13° E 08:00:16 10° E visible
23 Sep 1.2 09:32:13 23° W 09:33:45 40° SSW 09:36:44 10° SE visible
24 Sep 2.4 08:36:46 27° SE 08:36:46 27° SE 08:38:23 10° ESE visible
25 Sep 2.2 09:13:47 21° SSW 09:13:47 21° SSW 09:15:38 10° SSE visible
